Wetterdaten: Sonntag, 30.08.2015
Datum Zeit Auen-Temp. Temp gefhlt Luftfeuchte Luftdruck Regen Wind Richtung Richtung Taupunkt Windben
30.08.2015 00:00 16,1 C 15,9 C 79 % 1015,6 hPa 0,0 mm 0,0 km/h (0 Bft) O 90 12,5 C 0,0 km/h (0 Bft)
30.08.2015 00:05 16,0 C 15,8 C 79 % 1015,6 hPa 0,0 mm 0,0 km/h (0 Bft) O 90 12,4 C 0,0 km/h (0 Bft)
30.08.2015 00:10 15,9 C 15,8 C 80 % 1015,6 hPa 0,0 mm 0,0 km/h (0 Bft) O 90 12,5 C 0,0 km/h (0 Bft)
30.08.2015 00:15 15,8 C 15,7 C 80 % 1015,4 hPa 0,0 mm 0,0 km/h (0 Bft) N-NO 22 12,4 C 0,0 km/h (0 Bft)
30.08.2015 00:20 16,1 C 15,8 C 80 % 1015,4 hPa 0,0 mm 0,0 km/h (0 Bft) O-NO 67 12,6 C 0,0 km/h (0 Bft)
30.08.2015 00:25 16,1 C 15,9 C 80 % 1015,4 hPa 0,0 mm 0,0 km/h (0 Bft) O 90 12,6 C 0,0 km/h (0 Bft)
30.08.2015 00:26 16,3 C 16,0 C 81 % 1015,4 hPa 0,0 mm 0,0 km/h (0 Bft) O-NO 67 13,0 C 0,0 km/h (0 Bft)
30.08.2015 00:29 16,3 C 16,0 C 81 % 1015,4 hPa 0,0 mm 0,0 km/h (0 Bft) O-NO 67 13,0 C 0,0 km/h (0 Bft)
30.08.2015 00:30 16,3 C 16,0 C 81 % 1015,4 hPa 0,0 mm 0,0 km/h (0 Bft) O-NO 67 13,0 C 0,0 km/h (0 Bft)
30.08.2015 00:35 16,3 C 16,0 C 81 % 1015,2 hPa 0,0 mm 0,0 km/h (0 Bft) O-NO 67 13,0 C 0,0 km/h (0 Bft)
30.08.2015 00:40 16,4 C 16,1 C 81 % 1015,2 hPa 0,0 mm 0,0 km/h (0 Bft) O-NO 67 13,1 C 0,0 km/h (0 Bft)
30.08.2015 00:45 16,4 C 16,1 C 81 % 1015,2 hPa 0,0 mm 0,0 km/h (0 Bft) O-NO 67 13,1 C 0,0 km/h (0 Bft)
30.08.2015 00:50 16,0 C 15,8 C 80 % 1015,2 hPa 0,0 mm 0,0 km/h (0 Bft) O-NO 67 12,5 C 0,0 km/h (0 Bft)
30.08.2015 00:55 16,3 C 16,0 C 81 % 1015,4 hPa 0,0 mm 0,0 km/h (0 Bft) O 90 13,0 C 0,0 km/h (0 Bft)
30.08.2015 01:00 16,2 C 16,0 C 81 % 1015,4 hPa 0,0 mm 0,0 km/h (0 Bft) O 90 12,9 C 0,0 km/h (0 Bft)
30.08.2015 01:05 16,1 C 15,9 C 81 % 1015,4 hPa 0,0 mm 0,0 km/h (0 Bft) O-NO 67 12,8 C 0,0 km/h (0 Bft)
30.08.2015 01:10 15,9 C 15,7 C 82 % 1015,4 hPa 0,0 mm 0,0 km/h (0 Bft) O-NO 67 12,8 C 0,0 km/h (0 Bft)
30.08.2015 01:15 16,0 C 15,8 C 81 % 1015,4 hPa 0,0 mm 0,0 km/h (0 Bft) W-NW 292 12,7 C 0,0 km/h (0 Bft)
30.08.2015 01:20 15,8 C 15,7 C 82 % 1015,4 hPa 0,0 mm 0,0 km/h (0 Bft) NW 315 12,7 C 0,0 km/h (0 Bft)
30.08.2015 01:25 15,8 C 15,6 C 82 % 1015,4 hPa 0,0 mm 0,0 km/h (0 Bft) N-NO 22 12,7 C 0,0 km/h (0 Bft)
30.08.2015 01:30 15,8 C 15,6 C 83 % 1015,4 hPa 0,0 mm 0,0 km/h (0 Bft) N 360 12,9 C 0,0 km/h (0 Bft)
30.08.2015 01:35 15,6 C 15,5 C 82 % 1015,2 hPa 0,0 mm 0,0 km/h (0 Bft) N-NO 22 12,5 C 0,0 km/h (0 Bft)
30.08.2015 01:40 15,5 C 15,4 C 83 % 1015,2 hPa 0,0 mm 0,0 km/h (0 Bft) N-NO 22 12,6 C 0,0 km/h (0 Bft)
30.08.2015 01:45 15,5 C 15,4 C 83 % 1015,2 hPa 0,0 mm 0,0 km/h (0 Bft) N-NO 22 12,6 C 0,0 km/h (0 Bft)
30.08.2015 01:50 15,5 C 15,4 C 83 % 1015,2 hPa 0,0 mm 0,0 km/h (0 Bft) N 360 12,6 C 0,0 km/h (0 Bft)
30.08.2015 01:55 15,8 C 15,6 C 84 % 1015,2 hPa 0,0 mm 0,0 km/h (0 Bft) S 180 13,1 C 0,0 km/h (0 Bft)
30.08.2015 02:00 16,2 C 15,9 C 83 % 1015,2 hPa 0,0 mm 0,0 km/h (0 Bft) O-SO 112 13,3 C 0,0 km/h (0 Bft)
30.08.2015 02:05 15,9 C 15,7 C 83 % 1015,2 hPa 0,0 mm 0,0 km/h (0 Bft) O-SO 112 13,0 C 0,0 km/h (0 Bft)
30.08.2015 02:10 15,6 C 15,5 C 83 % 1015,2 hPa 0,0 mm 0,0 km/h (0 Bft) O 90 12,7 C 0,0 km/h (0 Bft)
30.08.2015 02:15 15,7 C 15,5 C 83 % 1015,2 hPa 0,0 mm 0,0 km/h (0 Bft) NO 45 12,8 C 0,0 km/h (0 Bft)
30.08.2015 02:20 15,5 C 15,4 C 83 % 1015,2 hPa 0,0 mm 0,0 km/h (0 Bft) O-NO 67 12,6 C 0,0 km/h (0 Bft)
30.08.2015 02:25 15,5 C 15,3 C 83 % 1015,2 hPa 0,0 mm 0,0 km/h (0 Bft) O-NO 67 12,6 C 0,0 km/h (0 Bft)
30.08.2015 02:30 15,4 C 15,3 C 83 % 1015,2 hPa 0,0 mm 0,0 km/h (0 Bft) SO 135 12,5 C 0,0 km/h (0 Bft)
30.08.2015 02:35 15,3 C 15,2 C 83 % 1015,0 hPa 0,0 mm 0,0 km/h (0 Bft) S-SO 157 12,4 C 0,0 km/h (0 Bft)
30.08.2015 02:40 15,3 C 15,2 C 84 % 1015,0 hPa 0,0 mm 0,0 km/h (0 Bft) N 360 12,6 C 0,0 km/h (0 Bft)
30.08.2015 02:45 15,2 C 15,1 C 84 % 1015,0 hPa 0,0 mm 0,0 km/h (0 Bft) N-NO 22 12,5 C 0,0 km/h (0 Bft)
30.08.2015 02:50 15,6 C 15,4 C 84 % 1015,0 hPa 0,0 mm 0,0 km/h (0 Bft) S 180 12,9 C 0,0 km/h (0 Bft)
30.08.2015 02:55 15,8 C 15,6 C 84 % 1014,9 hPa 0,0 mm 0,5 km/h (0 Bft) SO 135 13,1 C 0,0 km/h (0 Bft)
30.08.2015 03:00 15,9 C 15,8 C 84 % 1014,9 hPa 0,0 mm 1,0 km/h (0 Bft) S-SW 202 13,2 C 4,9 km/h (1 Bft)
30.08.2015 03:05 16,3 C 16,1 C 83 % 1014,9 hPa 0,0 mm 0,8 km/h (0 Bft) S 180 13,4 C 0,0 km/h (0 Bft)
30.08.2015 03:10 16,6 C 16,6 C 80 % 1014,9 hPa 0,0 mm 1,6 km/h (1 Bft) S 180 13,1 C 3,4 km/h (1 Bft)
30.08.2015 03:15 16,8 C 16,8 C 80 % 1015,0 hPa 0,0 mm 1,3 km/h (1 Bft) SO 135 13,3 C 0,0 km/h (0 Bft)
30.08.2015 03:20 16,8 C 16,9 C 79 % 1015,0 hPa 0,0 mm 0,5 km/h (0 Bft) S 180 13,1 C 0,0 km/h (0 Bft)
30.08.2015 03:25 16,5 C 16,8 C 80 % 1015,0 hPa 0,0 mm 0,0 km/h (0 Bft) O-NO 67 13,0 C 0,0 km/h (0 Bft)
30.08.2015 03:30 16,3 C 16,5 C 80 % 1015,0 hPa 0,0 mm 0,0 km/h (0 Bft) O-SO 112 12,8 C 0,0 km/h (0 Bft)
30.08.2015 03:35 16,2 C 16,3 C 80 % 1015,0 hPa 0,0 mm 0,0 km/h (0 Bft) NO 45 12,7 C 0,0 km/h (0 Bft)
30.08.2015 03:40 16,0 C 16,1 C 80 % 1015,0 hPa 0,0 mm 0,0 km/h (0 Bft) S-SO 157 12,5 C 0,0 km/h (0 Bft)
30.08.2015 03:45 16,3 C 16,2 C 80 % 1015,0 hPa 0,0 mm 0,0 km/h (0 Bft) SO 135 12,8 C 0,0 km/h (0 Bft)
30.08.2015 03:50 15,9 C 15,9 C 81 % 1015,0 hPa 0,0 mm 0,0 km/h (0 Bft) S-SO 157 12,6 C 0,0 km/h (0 Bft)
30.08.2015 03:55 15,8 C 15,8 C 81 % 1014,9 hPa 0,0 mm 0,0 km/h (0 Bft) S-SO 157 12,5 C 0,0 km/h (0 Bft)
30.08.2015 04:00 15,7 C 15,6 C 81 % 1014,9 hPa 0,0 mm 0,0 km/h (0 Bft) S 180 12,4 C 0,0 km/h (0 Bft)
30.08.2015 04:05 15,6 C 15,6 C 81 % 1014,9 hPa 0,0 mm 0,0 km/h (0 Bft) S 180 12,3 C 0,0 km/h (0 Bft)
30.08.2015 04:10 15,7 C 15,6 C 82 % 1014,9 hPa 0,0 mm 0,5 km/h (0 Bft) S-SO 157 12,6 C 6,2 km/h (2 Bft)
30.08.2015 04:15 16,2 C 16,0 C 81 % 1015,0 hPa 0,0 mm 1,0 km/h (0 Bft) SO 135 12,9 C 3,1 km/h (1 Bft)
30.08.2015 04:20 16,9 C 16,7 C 81 % 1015,0 hPa 0,0 mm 3,4 km/h (1 Bft) S-SO 157 13,6 C 13,5 km/h (3 Bft)
30.08.2015 04:25 17,3 C 17,1 C 80 % 1015,0 hPa 0,0 mm 4,1 km/h (1 Bft) S 180 13,8 C 3,1 km/h (1 Bft)
30.08.2015 04:30 17,4 C 17,3 C 79 % 1015,0 hPa 0,0 mm 3,9 km/h (1 Bft) SO 135 13,7 C 0,0 km/h (0 Bft)
30.08.2015 04:35 17,1 C 17,3 C 78 % 1015,0 hPa 0,0 mm 3,1 km/h (1 Bft) O-NO 67 13,2 C 2,6 km/h (1 Bft)
30.08.2015 04:40 16,5 C 16,9 C 78 % 1015,0 hPa 0,0 mm 1,0 km/h (0 Bft) NO 45 12,6 C 0,0 km/h (0 Bft)
30.08.2015 04:45 16,2 C 16,5 C 78 % 1015,0 hPa 0,0 mm 0,3 km/h (0 Bft) N 360 12,4 C 0,0 km/h (0 Bft)
30.08.2015 04:50 16,0 C 16,1 C 79 % 1015,0 hPa 0,0 mm 0,3 km/h (0 Bft) W-NW 292 12,4 C 0,0 km/h (0 Bft)
30.08.2015 04:55 15,8 C 15,8 C 79 % 1015,1 hPa 0,0 mm 0,3 km/h (0 Bft) W-NW 292 12,2 C 0,0 km/h (0 Bft)
30.08.2015 05:00 15,9 C 15,8 C 80 % 1015,1 hPa 0,0 mm 0,0 km/h (0 Bft) O-SO 112 12,5 C 0,0 km/h (0 Bft)
30.08.2015 05:05 15,8 C 15,7 C 80 % 1015,1 hPa 0,0 mm 0,0 km/h (0 Bft) O-SO 112 12,4 C 0,0 km/h (0 Bft)
30.08.2015 05:10 15,4 C 15,3 C 80 % 1015,1 hPa 0,0 mm 0,0 km/h (0 Bft) SW 225 12,0 C 0,0 km/h (0 Bft)
30.08.2015 05:15 15,6 C 15,4 C 81 % 1015,2 hPa 0,0 mm 0,0 km/h (0 Bft) SO 135 12,3 C 0,0 km/h (0 Bft)
30.08.2015 05:20 15,5 C 15,3 C 81 % 1015,2 hPa 0,0 mm 0,0 km/h (0 Bft) O-SO 112 12,3 C 0,0 km/h (0 Bft)
30.08.2015 05:25 15,3 C 15,2 C 81 % 1015,2 hPa 0,0 mm 0,0 km/h (0 Bft) W 270 12,1 C 0,0 km/h (0 Bft)
30.08.2015 05:30 15,3 C 15,2 C 81 % 1015,2 hPa 0,0 mm 0,3 km/h (0 Bft) S-SO 157 12,1 C 0,0 km/h (0 Bft)
30.08.2015 05:35 15,6 C 15,4 C 82 % 1015,2 hPa 0,0 mm 0,3 km/h (0 Bft) SO 135 12,5 C 0,0 km/h (0 Bft)
30.08.2015 05:40 15,6 C 15,5 C 82 % 1015,2 hPa 0,0 mm 0,0 km/h (0 Bft) S 180 12,5 C 0,0 km/h (0 Bft)
30.08.2015 05:45 15,7 C 15,5 C 82 % 1015,2 hPa 0,0 mm 0,0 km/h (0 Bft) S 180 12,6 C 0,0 km/h (0 Bft)
30.08.2015 05:50 15,4 C 15,3 C 82 % 1015,2 hPa 0,0 mm 0,0 km/h (0 Bft) W 270 12,3 C 0,0 km/h (0 Bft)
30.08.2015 05:55 15,3 C 15,2 C 82 % 1015,2 hPa 0,0 mm 0,0 km/h (0 Bft) SW 225 12,2 C 0,0 km/h (0 Bft)
30.08.2015 06:00 15,4 C 15,2 C 82 % 1015,2 hPa 0,0 mm 0,0 km/h (0 Bft) O-SO 112 12,3 C 0,0 km/h (0 Bft)
30.08.2015 06:05 15,3 C 15,2 C 82 % 1015,2 hPa 0,0 mm 0,0 km/h (0 Bft) SW 225 12,2 C 0,0 km/h (0 Bft)
30.08.2015 06:10 15,2 C 15,1 C 82 % 1015,2 hPa 0,0 mm 0,0 km/h (0 Bft) S-SO 157 12,1 C 0,0 km/h (0 Bft)
30.08.2015 06:15 15,4 C 15,2 C 82 % 1015,3 hPa 0,0 mm 0,0 km/h (0 Bft) W-SW 247 12,3 C 0,0 km/h (0 Bft)
30.08.2015 06:20 15,3 C 15,1 C 82 % 1015,3 hPa 0,0 mm 0,0 km/h (0 Bft) W 270 12,2 C 0,0 km/h (0 Bft)
30.08.2015 06:25 15,3 C 15,2 C 82 % 1015,3 hPa 0,0 mm 0,0 km/h (0 Bft) S-SO 157 12,2 C 0,0 km/h (0 Bft)
30.08.2015 06:26 15,1 C 15,0 C 82 % 1015,3 hPa 0,0 mm 0,0 km/h (0 Bft) SO 135 12,0 C 0,0 km/h (0 Bft)
30.08.2015 06:29 15,1 C 15,0 C 82 % 1015,3 hPa 0,0 mm 0,0 km/h (0 Bft) SO 135 12,0 C 0,0 km/h (0 Bft)
30.08.2015 06:35 14,8 C 14,9 C 82 % 1015,3 hPa 0,0 mm 0,0 km/h (0 Bft) N-NW 337 11,8 C 0,0 km/h (0 Bft)
30.08.2015 06:40 14,9 C 14,9 C 82 % 1015,3 hPa 0,0 mm 0,0 km/h (0 Bft) N-NW 337 11,9 C 0,0 km/h (0 Bft)
30.08.2015 06:45 14,6 C 14,7 C 82 % 1015,3 hPa 0,0 mm 0,0 km/h (0 Bft) N-NW 337 11,6 C 0,0 km/h (0 Bft)
30.08.2015 06:50 14,7 C 14,7 C 82 % 1015,3 hPa 0,0 mm 0,0 km/h (0 Bft) N-NW 337 11,7 C 0,0 km/h (0 Bft)
30.08.2015 06:55 14,7 C 14,6 C 82 % 1015,6 hPa 0,0 mm 0,0 km/h (0 Bft) N-NW 337 11,7 C 0,0 km/h (0 Bft)
30.08.2015 07:00 14,9 C 14,8 C 83 % 1015,6 hPa 0,0 mm 0,0 km/h (0 Bft) N-NW 337 12,0 C 0,0 km/h (0 Bft)
30.08.2015 07:05 14,9 C 14,8 C 82 % 1015,6 hPa 0,0 mm 0,0 km/h (0 Bft) W 270 11,9 C 0,0 km/h (0 Bft)
30.08.2015 07:10 14,9 C 14,8 C 82 % 1015,6 hPa 0,0 mm 0,0 km/h (0 Bft) W 270 11,9 C 0,0 km/h (0 Bft)
30.08.2015 07:15 14,9 C 14,8 C 82 % 1015,7 hPa 0,0 mm 0,0 km/h (0 Bft) N-NO 22 11,9 C 0,0 km/h (0 Bft)
30.08.2015 07:20 14,7 C 14,9 C 82 % 1015,7 hPa 0,0 mm 0,0 km/h (0 Bft) N 360 11,7 C 0,0 km/h (0 Bft)
30.08.2015 07:25 14,8 C 14,9 C 82 % 1015,7 hPa 0,0 mm 0,0 km/h (0 Bft) N-NO 22 11,8 C 0,0 km/h (0 Bft)
30.08.2015 07:30 15,1 C 15,2 C 82 % 1015,7 hPa 0,0 mm 0,0 km/h (0 Bft) S 180 12,0 C 0,0 km/h (0 Bft)
30.08.2015 07:35 15,0 C 15,5 C 82 % 1015,7 hPa 0,0 mm 0,0 km/h (0 Bft) NW 315 12,0 C 0,0 km/h (0 Bft)
30.08.2015 07:40 15,2 C 15,7 C 83 % 1015,7 hPa 0,0 mm 0,0 km/h (0 Bft) N-NO 22 12,3 C 0,0 km/h (0 Bft)
30.08.2015 07:45 15,3 C 17,1 C 81 % 1015,7 hPa 0,0 mm 0,0 km/h (0 Bft) N-NO 22 12,1 C 0,0 km/h (0 Bft)
30.08.2015 07:50 15,5 C 20,1 C 81 % 1015,7 hPa 0,0 mm 0,0 km/h (0 Bft) N 360 12,3 C 0,0 km/h (0 Bft)
30.08.2015 07:55 15,7 C 21,3 C 81 % 1016,1 hPa 0,0 mm 0,3 km/h (0 Bft) NW 315 12,4 C 0,0 km/h (0 Bft)
30.08.2015 08:00 16,5 C 23,1 C 80 % 1016,1 hPa 0,0 mm 0,3 km/h (0 Bft) N-NO 22 13,0 C 0,0 km/h (0 Bft)
30.08.2015 08:05 17,2 C 24,2 C 79 % 1016,1 hPa 0,0 mm 0,3 km/h (0 Bft) N-NO 22 13,5 C 0,0 km/h (0 Bft)
30.08.2015 08:10 18,4 C 25,5 C 78 % 1016,1 hPa 0,0 mm 0,0 km/h (0 Bft) NW 315 14,5 C 0,0 km/h (0 Bft)
30.08.2015 08:15 18,9 C 26,4 C 76 % 1015,9 hPa 0,0 mm 0,3 km/h (0 Bft) SW 225 14,6 C 5,7 km/h (1 Bft)
30.08.2015 08:20 19,4 C 27,5 C 76 % 1015,9 hPa 0,0 mm 0,3 km/h (0 Bft) S 180 15,1 C 0,0 km/h (0 Bft)
30.08.2015 08:25 20,0 C 28,3 C 75 % 1015,9 hPa 0,0 mm 0,3 km/h (0 Bft) W-NW 292 15,4 C 0,0 km/h (0 Bft)
30.08.2015 08:30 20,0 C 28,9 C 74 % 1015,9 hPa 0,0 mm 0,0 km/h (0 Bft) N-NO 22 15,2 C 0,0 km/h (0 Bft)
30.08.2015 08:35 20,3 C 29,6 C 74 % 1016,2 hPa 0,0 mm 0,0 km/h (0 Bft) N-NO 22 15,5 C 0,0 km/h (0 Bft)
30.08.2015 08:40 20,7 C 30,5 C 73 % 1016,2 hPa 0,0 mm 0,0 km/h (0 Bft) SO 135 15,7 C 0,0 km/h (0 Bft)
30.08.2015 08:45 21,3 C 30,9 C 73 % 1016,2 hPa 0,0 mm 0,0 km/h (0 Bft) SW 225 16,3 C 0,0 km/h (0 Bft)
30.08.2015 08:50 21,8 C 31,3 C 72 % 1016,2 hPa 0,0 mm 0,3 km/h (0 Bft) SO 135 16,5 C 0,0 km/h (0 Bft)
30.08.2015 08:55 22,2 C 31,3 C 71 % 1016,9 hPa 0,0 mm 0,3 km/h (0 Bft) W-NW 292 16,7 C 0,0 km/h (0 Bft)
30.08.2015 09:00 22,4 C 32,2 C 70 % 1016,9 hPa 0,0 mm 0,0 km/h (0 Bft) W-SW 247 16,7 C 0,0 km/h (0 Bft)
30.08.2015 09:05 22,6 C 32,5 C 69 % 1016,9 hPa 0,0 mm 0,0 km/h (0 Bft) N-NW 337 16,6 C 0,0 km/h (0 Bft)
30.08.2015 09:10 23,1 C 33,5 C 68 % 1016,9 hPa 0,0 mm 0,0 km/h (0 Bft) N-NW 337 16,9 C 0,0 km/h (0 Bft)
30.08.2015 09:15 22,9 C 34,1 C 69 % 1017,4 hPa 0,0 mm 0,0 km/h (0 Bft) N-NW 337 16,9 C 0,0 km/h (0 Bft)
30.08.2015 09:20 23,2 C 34,2 C 67 % 1017,4 hPa 0,0 mm 0,3 km/h (0 Bft) S 180 16,7 C 0,0 km/h (0 Bft)
30.08.2015 09:25 23,6 C 34,4 C 66 % 1017,4 hPa 0,0 mm 0,3 km/h (0 Bft) S-SO 157 16,9 C 0,0 km/h (0 Bft)
30.08.2015 09:30 23,6 C 34,2 C 65 % 1017,4 hPa 0,0 mm 0,3 km/h (0 Bft) S 180 16,6 C 0,0 km/h (0 Bft)
30.08.2015 09:35 23,8 C 34,4 C 64 % 1017,4 hPa 0,0 mm 0,3 km/h (0 Bft) SW 225 16,6 C 0,0 km/h (0 Bft)
30.08.2015 09:40 24,1 C 35,3 C 63 % 1017,4 hPa 0,0 mm 0,3 km/h (0 Bft) S-SO 157 16,6 C 0,0 km/h (0 Bft)
30.08.2015 09:45 24,2 C 35,7 C 62 % 1017,4 hPa 0,0 mm 0,0 km/h (0 Bft) O-SO 112 16,4 C 0,0 km/h (0 Bft)
30.08.2015 09:50 24,7 C 35,4 C 62 % 1017,4 hPa 0,0 mm 0,5 km/h (0 Bft) SO 135 16,9 C 2,8 km/h (1 Bft)
30.08.2015 09:55 25,1 C 35,0 C 62 % 1017,4 hPa 0,0 mm 1,3 km/h (1 Bft) W 270 17,3 C 3,6 km/h (1 Bft)
30.08.2015 10:00 25,5 C 34,9 C 59 % 1017,4 hPa 0,0 mm 1,3 km/h (1 Bft) N 360 16,9 C 0,0 km/h (0 Bft)
30.08.2015 10:05 25,4 C 35,6 C 59 % 1017,4 hPa 0,0 mm 0,5 km/h (0 Bft) S-SO 157 16,8 C 0,0 km/h (0 Bft)
30.08.2015 10:10 25,4 C 36,0 C 59 % 1017,4 hPa 0,0 mm 0,3 km/h (0 Bft) SO 135 16,8 C 0,0 km/h (0 Bft)
30.08.2015 10:15 25,8 C 36,7 C 59 % 1017,6 hPa 0,0 mm 0,3 km/h (0 Bft) S-SO 157 17,2 C 0,0 km/h (0 Bft)
30.08.2015 10:20 25,8 C 36,2 C 57 % 1017,6 hPa 0,0 mm 1,0 km/h (0 Bft) S 180 16,6 C 0,0 km/h (0 Bft)
30.08.2015 10:25 26,1 C 36,4 C 56 % 1017,6 hPa 0,0 mm 1,0 km/h (0 Bft) W-SW 247 16,6 C 0,0 km/h (0 Bft)
30.08.2015 10:30 26,0 C 36,0 C 55 % 1017,6 hPa 0,0 mm 1,0 km/h (0 Bft) W 270 16,2 C 4,1 km/h (1 Bft)
30.08.2015 10:35 26,5 C 35,6 C 56 % 1017,6 hPa 0,0 mm 2,3 km/h (1 Bft) NW 315 17,0 C 11,4 km/h (2 Bft)
30.08.2015 10:40 27,2 C 34,4 C 53 % 1017,6 hPa 0,0 mm 5,7 km/h (1 Bft) SW 225 16,8 C 5,4 km/h (1 Bft)
30.08.2015 10:45 27,3 C 34,0 C 52 % 1017,6 hPa 0,0 mm 6,5 km/h (2 Bft) S-SW 202 16,6 C 7,8 km/h (2 Bft)
30.08.2015 10:50 27,4 C 33,6 C 51 % 1017,6 hPa 0,0 mm 4,9 km/h (1 Bft) N-NW 337 16,3 C 0,0 km/h (0 Bft)
30.08.2015 10:55 27,5 C 33,4 C 51 % 1017,7 hPa 0,0 mm 4,9 km/h (1 Bft) S-SO 157 16,4 C 4,1 km/h (1 Bft)
30.08.2015 11:00 27,6 C 33,2 C 50 % 1017,7 hPa 0,0 mm 4,9 km/h (1 Bft) W-SW 247 16,2 C 7,8 km/h (2 Bft)
30.08.2015 11:05 27,7 C 33,2 C 51 % 1017,7 hPa 0,0 mm 4,7 km/h (1 Bft) W-SW 247 16,6 C 2,6 km/h (1 Bft)
30.08.2015 11:10 27,9 C 33,1 C 50 % 1017,7 hPa 0,0 mm 6,2 km/h (2 Bft) W-NW 292 16,5 C 16,3 km/h (3 Bft)
30.08.2015 11:15 27,8 C 32,8 C 50 % 1017,9 hPa 0,0 mm 7,3 km/h (2 Bft) S 180 16,4 C 15,8 km/h (3 Bft)
30.08.2015 11:20 27,8 C 32,8 C 50 % 1017,9 hPa 0,0 mm 7,3 km/h (2 Bft) N-NW 337 16,4 C 3,6 km/h (1 Bft)
30.08.2015 11:25 28,0 C 33,0 C 52 % 1017,9 hPa 0,0 mm 5,2 km/h (1 Bft) S 180 17,2 C 4,9 km/h (1 Bft)
30.08.2015 11:30 28,3 C 33,1 C 51 % 1017,9 hPa 0,0 mm 5,2 km/h (1 Bft) W 270 17,2 C 16,6 km/h (3 Bft)
30.08.2015 11:35 28,0 C 32,8 C 50 % 1018,0 hPa 0,0 mm 8,0 km/h (2 Bft) W-NW 292 16,6 C 16,8 km/h (3 Bft)
30.08.2015 11:40 27,9 C 32,5 C 51 % 1018,0 hPa 0,0 mm 8,3 km/h (2 Bft) W 270 16,8 C 22,8 km/h (4 Bft)
30.08.2015 11:45 28,0 C 32,4 C 51 % 1018,0 hPa 0,0 mm 8,0 km/h (2 Bft) W-NW 292 16,9 C 12,7 km/h (3 Bft)
30.08.2015 11:50 28,0 C 32,1 C 51 % 1018,0 hPa 0,0 mm 10,4 km/h (2 Bft) NW 315 16,9 C 12,9 km/h (3 Bft)
30.08.2015 11:55 28,0 C 31,7 C 50 % 1017,9 hPa 0,0 mm 12,2 km/h (2 Bft) NW 315 16,6 C 16,3 km/h (3 Bft)
30.08.2015 12:00 28,1 C 31,7 C 51 % 1017,9 hPa 0,0 mm 11,4 km/h (2 Bft) N-NO 22 17,0 C 29,8 km/h (5 Bft)
30.08.2015 12:05 28,3 C 32,3 C 51 % 1017,9 hPa 0,0 mm 8,0 km/h (2 Bft) W-NW 292 17,2 C 6,0 km/h (2 Bft)
30.08.2015 12:10 28,5 C 32,9 C 51 % 1017,9 hPa 0,0 mm 6,5 km/h (2 Bft) W-SW 247 17,4 C 6,7 km/h (2 Bft)
30.08.2015 12:15 28,6 C 33,1 C 52 % 1018,1 hPa 0,0 mm 5,7 km/h (1 Bft) SW 225 17,8 C 6,2 km/h (2 Bft)
30.08.2015 12:20 28,8 C 33,0 C 51 % 1018,1 hPa 0,0 mm 7,0 km/h (2 Bft) NW 315 17,6 C 7,0 km/h (2 Bft)
30.08.2015 12:25 28,7 C 32,9 C 50 % 1018,1 hPa 0,0 mm 8,8 km/h (2 Bft) N-NW 337 17,2 C 6,5 km/h (2 Bft)
30.08.2015 12:26 29,0 C 32,8 C 51 % 1018,1 hPa 0,0 mm 9,3 km/h (2 Bft) NW 315 17,8 C 10,6 km/h (2 Bft)
30.08.2015 12:31 29,0 C 32,8 C 51 % 1018,1 hPa 0,0 mm 9,3 km/h (2 Bft) NW 315 17,8 C 10,6 km/h (2 Bft)
30.08.2015 12:35 28,9 C 32,8 C 52 % 1018,1 hPa 0,0 mm 8,3 km/h (2 Bft) NW 315 18,0 C 8,0 km/h (2 Bft)
30.08.2015 12:40 29,3 C 33,0 C 52 % 1018,1 hPa 0,0 mm 8,3 km/h (2 Bft) NW 315 18,4 C 13,2 km/h (3 Bft)
30.08.2015 12:45 29,3 C 33,0 C 51 % 1018,1 hPa 0,0 mm 9,1 km/h (2 Bft) W 270 18,1 C 7,0 km/h (2 Bft)
30.08.2015 12:50 29,1 C 33,0 C 50 % 1018,1 hPa 0,0 mm 10,1 km/h (2 Bft) W-NW 292 17,6 C 14,5 km/h (3 Bft)
30.08.2015 12:55 29,3 C 32,8 C 50 % 1017,8 hPa 0,0 mm 9,6 km/h (2 Bft) W-NW 292 17,8 C 13,5 km/h (3 Bft)
30.08.2015 13:00 29,3 C 32,5 C 50 % 1017,8 hPa 0,0 mm 10,6 km/h (2 Bft) NW 315 17,8 C 10,9 km/h (2 Bft)
30.08.2015 13:05 29,3 C 32,5 C 50 % 1017,8 hPa 0,0 mm 11,1 km/h (2 Bft) NW 315 17,8 C 17,3 km/h (3 Bft)
30.08.2015 13:10 29,4 C 32,6 C 50 % 1017,8 hPa 0,0 mm 9,3 km/h (2 Bft) W-NW 292 17,9 C 15,8 km/h (3 Bft)
30.08.2015 13:15 29,3 C 32,4 C 49 % 1017,7 hPa 0,0 mm 8,8 km/h (2 Bft) NW 315 17,5 C 9,3 km/h (2 Bft)
30.08.2015 13:20 29,4 C 31,9 C 49 % 1017,7 hPa 0,0 mm 9,1 km/h (2 Bft) W-NW 292 17,5 C 10,9 km/h (2 Bft)
30.08.2015 13:25 29,5 C 31,1 C 49 % 1017,7 hPa 0,0 mm 10,6 km/h (2 Bft) W 270 17,6 C 15,3 km/h (3 Bft)
30.08.2015 13:30 29,7 C 30,9 C 49 % 1017,7 hPa 0,0 mm 10,1 km/h (2 Bft) W 270 17,8 C 15,3 km/h (3 Bft)
30.08.2015 13:35 29,6 C 30,8 C 49 % 1017,5 hPa 0,0 mm 9,6 km/h (2 Bft) W-NW 292 17,7 C 11,7 km/h (2 Bft)
30.08.2015 13:40 29,7 C 31,3 C 49 % 1017,5 hPa 0,0 mm 9,8 km/h (2 Bft) W-SW 247 17,8 C 19,4 km/h (3 Bft)
30.08.2015 13:45 29,8 C 31,7 C 48 % 1017,5 hPa 0,0 mm 9,6 km/h (2 Bft) NW 315 17,6 C 16,1 km/h (3 Bft)
30.08.2015 13:50 29,8 C 32,3 C 48 % 1017,5 hPa 0,0 mm 10,1 km/h (2 Bft) NW 315 17,6 C 8,0 km/h (2 Bft)
30.08.2015 13:55 29,9 C 32,8 C 48 % 1017,2 hPa 0,0 mm 9,3 km/h (2 Bft) W 270 17,7 C 11,9 km/h (2 Bft)
30.08.2015 14:00 29,9 C 33,4 C 47 % 1017,2 hPa 0,0 mm 7,5 km/h (2 Bft) NW 315 17,3 C 10,6 km/h (2 Bft)
30.08.2015 14:05 30,1 C 33,6 C 47 % 1017,2 hPa 0,0 mm 7,5 km/h (2 Bft) W 270 17,5 C 8,3 km/h (2 Bft)
30.08.2015 14:10 30,2 C 33,9 C 47 % 1017,2 hPa 0,0 mm 6,7 km/h (2 Bft) S 180 17,6 C 9,1 km/h (2 Bft)
30.08.2015 14:15 30,1 C 34,1 C 47 % 1017,1 hPa 0,0 mm 6,5 km/h (2 Bft) NW 315 17,5 C 6,7 km/h (2 Bft)
30.08.2015 14:20 30,2 C 34,3 C 47 % 1017,1 hPa 0,0 mm 6,2 km/h (2 Bft) NW 315 17,6 C 3,4 km/h (1 Bft)
30.08.2015 14:25 30,4 C 34,7 C 46 % 1017,1 hPa 0,0 mm 4,9 km/h (1 Bft) NW 315 17,5 C 0,0 km/h (0 Bft)
30.08.2015 14:30 30,6 C 35,3 C 46 % 1017,1 hPa 0,0 mm 3,9 km/h (1 Bft) N-NW 337 17,6 C 0,0 km/h (0 Bft)
30.08.2015 14:35 30,8 C 35,3 C 46 % 1016,9 hPa 0,0 mm 4,4 km/h (1 Bft) W 270 17,8 C 8,0 km/h (2 Bft)
30.08.2015 14:40 30,5 C 35,1 C 46 % 1016,9 hPa 0,0 mm 5,7 km/h (1 Bft) N-NW 337 17,5 C 8,3 km/h (2 Bft)
30.08.2015 14:45 30,5 C 34,9 C 46 % 1016,9 hPa 0,0 mm 6,5 km/h (2 Bft) W 270 17,5 C 7,8 km/h (2 Bft)
30.08.2015 14:50 30,4 C 34,3 C 45 % 1016,9 hPa 0,0 mm 8,5 km/h (2 Bft) W 270 17,1 C 11,9 km/h (2 Bft)
30.08.2015 14:55 30,4 C 34,0 C 46 % 1016,6 hPa 0,0 mm 8,5 km/h (2 Bft) N-NO 22 17,5 C 6,5 km/h (2 Bft)
30.08.2015 15:00 30,4 C 34,3 C 46 % 1016,6 hPa 0,0 mm 5,2 km/h (1 Bft) N-NO 22 17,5 C 2,8 km/h (1 Bft)
30.08.2015 15:05 30,5 C 34,5 C 46 % 1016,6 hPa 0,0 mm 6,0 km/h (2 Bft) NW 315 17,5 C 14,5 km/h (3 Bft)
30.08.2015 15:10 30,7 C 34,5 C 45 % 1016,6 hPa 0,0 mm 6,5 km/h (2 Bft) N-NO 22 17,4 C 7,8 km/h (2 Bft)
30.08.2015 15:15 30,6 C 34,4 C 45 % 1016,4 hPa 0,0 mm 7,0 km/h (2 Bft) N 360 17,3 C 4,9 km/h (1 Bft)
30.08.2015 15:20 30,4 C 34,4 C 44 % 1016,4 hPa 0,0 mm 7,5 km/h (2 Bft) N-NO 22 16,7 C 6,0 km/h (2 Bft)
30.08.2015 15:25 30,4 C 34,8 C 45 % 1016,4 hPa 0,0 mm 6,0 km/h (2 Bft) W 270 17,1 C 8,3 km/h (2 Bft)
30.08.2015 15:30 30,9 C 35,1 C 45 % 1016,4 hPa 0,0 mm 3,4 km/h (1 Bft) W 270 17,6 C 6,5 km/h (2 Bft)
30.08.2015 15:35 31,1 C 35,4 C 44 % 1016,1 hPa 0,0 mm 2,8 km/h (1 Bft) W-SW 247 17,4 C 3,6 km/h (1 Bft)
30.08.2015 15:40 30,8 C 36,0 C 43 % 1016,1 hPa 0,0 mm 2,3 km/h (1 Bft) S 180 16,7 C 0,0 km/h (0 Bft)
30.08.2015 15:45 30,6 C 36,1 C 42 % 1016,1 hPa 0,0 mm 1,8 km/h (1 Bft) S 180 16,2 C 3,4 km/h (1 Bft)
30.08.2015 15:50 30,5 C 36,0 C 45 % 1016,1 hPa 0,0 mm 2,3 km/h (1 Bft) W 270 17,2 C 3,9 km/h (1 Bft)
30.08.2015 15:55 30,7 C 36,0 C 44 % 1015,7 hPa 0,0 mm 2,8 km/h (1 Bft) S 180 17,0 C 3,1 km/h (1 Bft)
30.08.2015 16:00 30,4 C 36,2 C 44 % 1015,7 hPa 0,0 mm 2,8 km/h (1 Bft) NW 315 16,7 C 9,3 km/h (2 Bft)
30.08.2015 16:05 30,6 C 36,0 C 44 % 1015,7 hPa 0,0 mm 3,6 km/h (1 Bft) NW 315 16,9 C 9,8 km/h (2 Bft)
30.08.2015 16:10 30,6 C 35,6 C 45 % 1015,7 hPa 0,0 mm 4,1 km/h (1 Bft) W 270 17,3 C 0,0 km/h (0 Bft)
30.08.2015 16:15 30,8 C 36,0 C 45 % 1015,3 hPa 0,0 mm 2,3 km/h (1 Bft) SO 135 17,5 C 0,0 km/h (0 Bft)
30.08.2015 16:20 30,1 C 36,6 C 45 % 1015,3 hPa 0,0 mm 0,8 km/h (0 Bft) W-NW 292 16,8 C 3,4 km/h (1 Bft)
30.08.2015 16:25 29,7 C 36,5 C 45 % 1015,3 hPa 0,0 mm 1,8 km/h (1 Bft) W-NW 292 16,5 C 4,4 km/h (1 Bft)
30.08.2015 16:30 29,3 C 36,1 C 45 % 1015,3 hPa 0,0 mm 3,9 km/h (1 Bft) W-NW 292 16,1 C 5,4 km/h (1 Bft)
30.08.2015 16:35 29,2 C 35,8 C 45 % 1015,0 hPa 0,0 mm 3,9 km/h (1 Bft) W-NW 292 16,0 C 0,0 km/h (0 Bft)
30.08.2015 16:40 29,1 C 35,2 C 46 % 1015,0 hPa 0,0 mm 2,8 km/h (1 Bft) NW 315 16,3 C 5,7 km/h (1 Bft)
30.08.2015 16:45 29,0 C 33,3 C 47 % 1015,0 hPa 0,0 mm 3,4 km/h (1 Bft) N-NW 337 16,5 C 3,1 km/h (1 Bft)
30.08.2015 16:50 28,8 C 31,5 C 48 % 1015,0 hPa 0,0 mm 4,9 km/h (1 Bft) NW 315 16,7 C 4,4 km/h (1 Bft)
30.08.2015 16:55 28,7 C 30,8 C 48 % 1014,9 hPa 0,0 mm 4,4 km/h (1 Bft) NW 315 16,6 C 4,4 km/h (1 Bft)
30.08.2015 17:00 28,6 C 30,2 C 48 % 1014,9 hPa 0,0 mm 3,4 km/h (1 Bft) W 270 16,5 C 7,8 km/h (2 Bft)
30.08.2015 17:05 28,5 C 29,8 C 48 % 1014,9 hPa 0,0 mm 3,6 km/h (1 Bft) NW 315 16,4 C 4,7 km/h (1 Bft)
30.08.2015 17:10 28,5 C 29,7 C 48 % 1014,9 hPa 0,0 mm 5,7 km/h (1 Bft) NW 315 16,4 C 9,1 km/h (2 Bft)
30.08.2015 17:15 28,5 C 29,5 C 48 % 1014,8 hPa 0,0 mm 6,0 km/h (2 Bft) N-NW 337 16,4 C 6,7 km/h (2 Bft)
30.08.2015 17:20 28,4 C 29,3 C 48 % 1014,8 hPa 0,0 mm 4,4 km/h (1 Bft) W 270 16,3 C 5,2 km/h (1 Bft)
30.08.2015 17:25 28,2 C 29,2 C 49 % 1014,8 hPa 0,0 mm 2,6 km/h (1 Bft) NW 315 16,5 C 4,1 km/h (1 Bft)
30.08.2015 17:30 28,0 C 29,1 C 49 % 1014,8 hPa 0,0 mm 1,0 km/h (0 Bft) S-SW 202 16,3 C 0,0 km/h (0 Bft)
30.08.2015 17:35 27,8 C 29,0 C 50 % 1014,4 hPa 0,0 mm 0,5 km/h (0 Bft) O-NO 67 16,4 C 0,0 km/h (0 Bft)
30.08.2015 17:40 27,7 C 28,9 C 50 % 1014,4 hPa 0,0 mm 0,0 km/h (0 Bft) S-SW 202 16,3 C 0,0 km/h (0 Bft)
30.08.2015 17:45 27,6 C 28,8 C 50 % 1014,4 hPa 0,0 mm 0,0 km/h (0 Bft) O-SO 112 16,2 C 0,0 km/h (0 Bft)
30.08.2015 17:50 27,4 C 28,7 C 50 % 1014,4 hPa 0,0 mm 0,0 km/h (0 Bft) N-NO 22 16,0 C 0,0 km/h (0 Bft)
30.08.2015 17:55 27,6 C 28,6 C 49 % 1014,5 hPa 0,0 mm 1,6 km/h (1 Bft) O-SO 112 15,9 C 3,9 km/h (1 Bft)
30.08.2015 18:00 27,6 C 28,5 C 50 % 1014,5 hPa 0,0 mm 2,8 km/h (1 Bft) O-NO 67 16,2 C 0,0 km/h (0 Bft)
30.08.2015 18:05 27,4 C 28,5 C 50 % 1014,5 hPa 0,0 mm 2,6 km/h (1 Bft) NO 45 16,0 C 3,4 km/h (1 Bft)
30.08.2015 18:10 27,4 C 28,5 C 50 % 1014,5 hPa 0,0 mm 3,6 km/h (1 Bft) O-NO 67 16,0 C 0,0 km/h (0 Bft)
30.08.2015 18:15 27,3 C 28,3 C 50 % 1014,2 hPa 0,0 mm 3,4 km/h (1 Bft) NO 45 15,9 C 4,7 km/h (1 Bft)
30.08.2015 18:20 26,9 C 28,3 C 51 % 1014,2 hPa 0,0 mm 2,3 km/h (1 Bft) O-NO 67 15,9 C 3,1 km/h (1 Bft)
30.08.2015 18:25 27,0 C 28,1 C 51 % 1014,2 hPa 0,0 mm 3,1 km/h (1 Bft) N 360 16,0 C 2,6 km/h (1 Bft)
30.08.2015 18:30 26,7 C 28,0 C 51 % 1014,2 hPa 0,0 mm 1,8 km/h (1 Bft) NO 45 15,7 C 0,0 km/h (0 Bft)
30.08.2015 18:31 26,6 C 27,9 C 51 % 1014,2 hPa 0,0 mm 0,5 km/h (0 Bft) N-NO 22 15,6 C 0,0 km/h (0 Bft)
30.08.2015 18:35 26,6 C 27,9 C 51 % 1014,2 hPa 0,0 mm 0,5 km/h (0 Bft) N-NO 22 15,6 C 0,0 km/h (0 Bft)
30.08.2015 18:40 26,4 C 27,7 C 52 % 1014,2 hPa 0,0 mm 0,0 km/h (0 Bft) N-NO 22 15,7 C 2,8 km/h (1 Bft)
30.08.2015 18:45 26,2 C 27,5 C 53 % 1014,2 hPa 0,0 mm 0,3 km/h (0 Bft) N-NW 337 15,8 C 4,9 km/h (1 Bft)
30.08.2015 18:50 26,3 C 27,3 C 53 % 1014,2 hPa 0,0 mm 1,0 km/h (0 Bft) O-SO 112 15,9 C 0,0 km/h (0 Bft)
30.08.2015 18:55 26,2 C 27,3 C 53 % 1014,3 hPa 0,0 mm 1,0 km/h (0 Bft) O-NO 67 15,8 C 0,0 km/h (0 Bft)
30.08.2015 19:00 26,0 C 27,0 C 54 % 1014,3 hPa 0,0 mm 0,0 km/h (0 Bft) O-SO 112 16,0 C 0,0 km/h (0 Bft)
30.08.2015 19:05 26,0 C 26,8 C 56 % 1014,3 hPa 0,0 mm 0,0 km/h (0 Bft) SO 135 16,5 C 0,0 km/h (0 Bft)
30.08.2015 19:10 25,8 C 26,5 C 58 % 1014,3 hPa 0,0 mm 0,0 km/h (0 Bft) O-SO 112 16,9 C 0,0 km/h (0 Bft)
30.08.2015 19:15 25,8 C 26,3 C 56 % 1014,2 hPa 0,0 mm 0,0 km/h (0 Bft) SO 135 16,3 C 0,0 km/h (0 Bft)
30.08.2015 19:20 25,9 C 26,1 C 58 % 1014,2 hPa 0,0 mm 0,0 km/h (0 Bft) O-SO 112 17,0 C 0,0 km/h (0 Bft)
30.08.2015 19:25 25,8 C 26,0 C 58 % 1014,2 hPa 0,0 mm 0,0 km/h (0 Bft) SO 135 16,9 C 0,0 km/h (0 Bft)
30.08.2015 19:30 25,6 C 25,9 C 58 % 1014,2 hPa 0,0 mm 0,0 km/h (0 Bft) O-SO 112 16,7 C 0,0 km/h (0 Bft)
30.08.2015 19:35 25,4 C 25,7 C 58 % 1014,1 hPa 0,0 mm 0,0 km/h (0 Bft) SO 135 16,5 C 2,6 km/h (1 Bft)
30.08.2015 19:40 25,0 C 25,5 C 59 % 1014,1 hPa 0,0 mm 0,0 km/h (0 Bft) S-SO 157 16,4 C 0,0 km/h (0 Bft)
30.08.2015 19:45 24,3 C 25,3 C 61 % 1014,1 hPa 0,0 mm 0,0 km/h (0 Bft) SO 135 16,3 C 0,0 km/h (0 Bft)
30.08.2015 19:50 23,8 C 25,0 C 63 % 1014,1 hPa 0,0 mm 0,0 km/h (0 Bft) SO 135 16,3 C 2,6 km/h (1 Bft)
30.08.2015 19:55 23,5 C 24,7 C 63 % 1014,1 hPa 0,0 mm 0,3 km/h (0 Bft) SO 135 16,0 C 0,0 km/h (0 Bft)
30.08.2015 20:00 22,9 C 24,2 C 66 % 1014,1 hPa 0,0 mm 0,3 km/h (0 Bft) O-SO 112 16,2 C 0,0 km/h (0 Bft)
30.08.2015 20:05 22,5 C 23,6 C 66 % 1014,1 hPa 0,0 mm 0,0 km/h (0 Bft) O-SO 112 15,8 C 0,0 km/h (0 Bft)
30.08.2015 20:10 21,9 C 22,7 C 68 % 1014,1 hPa 0,0 mm 0,0 km/h (0 Bft) SO 135 15,7 C 0,0 km/h (0 Bft)
30.08.2015 20:15 21,8 C 22,4 C 70 % 1014,2 hPa 0,0 mm 0,0 km/h (0 Bft) SO 135 16,1 C 0,0 km/h (0 Bft)
30.08.2015 20:20 21,8 C 22,5 C 71 % 1014,2 hPa 0,0 mm 1,6 km/h (1 Bft) S-SO 157 16,3 C 4,4 km/h (1 Bft)
30.08.2015 20:25 22,0 C 22,5 C 70 % 1014,2 hPa 0,0 mm 2,8 km/h (1 Bft) SO 135 16,3 C 4,1 km/h (1 Bft)
30.08.2015 20:30 21,8 C 22,3 C 71 % 1014,2 hPa 0,0 mm 2,6 km/h (1 Bft) S 180 16,3 C 0,0 km/h (0 Bft)
30.08.2015 20:35 21,2 C 22,1 C 71 % 1014,0 hPa 0,0 mm 1,3 km/h (1 Bft) S-SO 157 15,7 C 0,0 km/h (0 Bft)
30.08.2015 20:40 21,1 C 21,9 C 73 % 1014,0 hPa 0,0 mm 0,5 km/h (0 Bft) SO 135 16,1 C 0,0 km/h (0 Bft)
30.08.2015 20:45 21,1 C 21,8 C 72 % 1014,0 hPa 0,0 mm 0,5 km/h (0 Bft) SO 135 15,8 C 0,0 km/h (0 Bft)
30.08.2015 20:50 20,9 C 21,5 C 73 % 1014,0 hPa 0,0 mm 0,3 km/h (0 Bft) SO 135 15,9 C 0,0 km/h (0 Bft)
30.08.2015 20:55 20,8 C 21,3 C 74 % 1014,1 hPa 0,0 mm 0,0 km/h (0 Bft) SO 135 16,0 C 0,0 km/h (0 Bft)
30.08.2015 21:00 20,9 C 21,1 C 74 % 1014,1 hPa 0,0 mm 0,5 km/h (0 Bft) S 180 16,1 C 3,4 km/h (1 Bft)
30.08.2015 21:05 20,9 C 21,0 C 74 % 1014,1 hPa 0,0 mm 1,3 km/h (1 Bft) S 180 16,1 C 3,6 km/h (1 Bft)
30.08.2015 21:10 20,4 C 20,7 C 74 % 1014,1 hPa 0,0 mm 2,6 km/h (1 Bft) S 180 15,6 C 0,0 km/h (0 Bft)
30.08.2015 21:15 20,1 C 20,6 C 74 % 1014,2 hPa 0,0 mm 2,6 km/h (1 Bft) S-SO 157 15,3 C 0,0 km/h (0 Bft)
30.08.2015 21:20 20,4 C 20,6 C 75 % 1014,2 hPa 0,0 mm 1,0 km/h (0 Bft) S 180 15,8 C 0,0 km/h (0 Bft)
30.08.2015 21:25 20,2 C 20,4 C 74 % 1014,2 hPa 0,0 mm 0,3 km/h (0 Bft) S 180 15,4 C 0,0 km/h (0 Bft)
30.08.2015 21:30 19,8 C 20,2 C 74 % 1014,2 hPa 0,0 mm 0,3 km/h (0 Bft) SO 135 15,0 C 0,0 km/h (0 Bft)
30.08.2015 21:35 19,7 C 20,0 C 74 % 1014,2 hPa 0,0 mm 0,0 km/h (0 Bft) SO 135 14,9 C 0,0 km/h (0 Bft)
30.08.2015 21:40 19,3 C 19,6 C 74 % 1014,2 hPa 0,0 mm 0,0 km/h (0 Bft) SO 135 14,5 C 0,0 km/h (0 Bft)
30.08.2015 21:45 19,2 C 19,3 C 74 % 1014,2 hPa 0,0 mm 0,0 km/h (0 Bft) SO 135 14,4 C 0,0 km/h (0 Bft)
30.08.2015 21:50 19,2 C 19,1 C 75 % 1014,2 hPa 0,0 mm 0,0 km/h (0 Bft) SO 135 14,7 C 0,0 km/h (0 Bft)
30.08.2015 21:55 19,0 C 18,9 C 75 % 1014,3 hPa 0,0 mm 0,0 km/h (0 Bft) SO 135 14,5 C 0,0 km/h (0 Bft)
30.08.2015 22:00 18,9 C 18,8 C 75 % 1014,3 hPa 0,0 mm 0,0 km/h (0 Bft) SO 135 14,4 C 0,0 km/h (0 Bft)
30.08.2015 22:05 18,8 C 18,7 C 76 % 1014,3 hPa 0,0 mm 0,0 km/h (0 Bft) SO 135 14,5 C 0,0 km/h (0 Bft)
30.08.2015 22:10 18,8 C 18,6 C 76 % 1014,3 hPa 0,0 mm 0,0 km/h (0 Bft) SO 135 14,5 C 0,0 km/h (0 Bft)
30.08.2015 22:15 18,7 C 18,6 C 76 % 1014,3 hPa 0,0 mm 0,0 km/h (0 Bft) SO 135 14,4 C 0,0 km/h (0 Bft)
30.08.2015 22:20 18,8 C 18,6 C 77 % 1014,3 hPa 0,0 mm 0,0 km/h (0 Bft) S 180 14,7 C 0,0 km/h (0 Bft)
30.08.2015 22:25 18,8 C 18,6 C 77 % 1014,3 hPa 0,0 mm 0,0 km/h (0 Bft) S 180 14,7 C 0,0 km/h (0 Bft)
30.08.2015 22:30 18,8 C 18,6 C 77 % 1014,3 hPa 0,0 mm 0,0 km/h (0 Bft) S 180 14,7 C 0,0 km/h (0 Bft)
30.08.2015 22:35 18,7 C 18,6 C 77 % 1014,1 hPa 0,0 mm 0,0 km/h (0 Bft) S 180 14,6 C 0,0 km/h (0 Bft)
30.08.2015 22:40 19,0 C 18,8 C 77 % 1014,1 hPa 0,0 mm 0,0 km/h (0 Bft) S 180 14,9 C 0,0 km/h (0 Bft)
30.08.2015 22:45 19,0 C 18,8 C 77 % 1014,1 hPa 0,0 mm 0,0 km/h (0 Bft) S 180 14,9 C 0,0 km/h (0 Bft)
30.08.2015 22:50 19,0 C 18,8 C 77 % 1014,1 hPa 0,0 mm 0,0 km/h (0 Bft) S-SO 157 14,9 C 0,0 km/h (0 Bft)
30.08.2015 22:55 18,9 C 18,7 C 77 % 1014,1 hPa 0,0 mm 0,0 km/h (0 Bft) S 180 14,8 C 0,0 km/h (0 Bft)
30.08.2015 23:00 19,1 C 18,9 C 77 % 1014,1 hPa 0,0 mm 0,3 km/h (0 Bft) S-SO 157 15,0 C 2,8 km/h (1 Bft)
30.08.2015 23:05 19,1 C 18,9 C 77 % 1014,1 hPa 0,0 mm 0,3 km/h (0 Bft) S-SO 157 15,0 C 0,0 km/h (0 Bft)
30.08.2015 23:10 19,0 C 18,8 C 77 % 1014,1 hPa 0,0 mm 0,0 km/h (0 Bft) S 180 14,9 C 0,0 km/h (0 Bft)
30.08.2015 23:15 18,9 C 18,7 C 77 % 1013,9 hPa 0,0 mm 0,0 km/h (0 Bft) S 180 14,8 C 0,0 km/h (0 Bft)
30.08.2015 23:20 18,9 C 18,7 C 77 % 1013,9 hPa 0,0 mm 0,3 km/h (0 Bft) S-SO 157 14,8 C 0,0 km/h (0 Bft)
30.08.2015 23:25 19,1 C 18,9 C 77 % 1013,9 hPa 0,0 mm 0,3 km/h (0 Bft) S 180 15,0 C 3,4 km/h (1 Bft)
30.08.2015 23:30 19,2 C 19,0 C 77 % 1013,9 hPa 0,0 mm 0,5 km/h (0 Bft) SO 135 15,1 C 0,0 km/h (0 Bft)
30.08.2015 23:35 19,1 C 18,9 C 77 % 1014,0 hPa 0,0 mm 0,5 km/h (0 Bft) S 180 15,0 C 0,0 km/h (0 Bft)
30.08.2015 23:40 18,9 C 18,7 C 77 % 1014,0 hPa 0,0 mm 0,0 km/h (0 Bft) S-SO 157 14,8 C 0,0 km/h (0 Bft)
30.08.2015 23:45 18,6 C 18,5 C 77 % 1014,0 hPa 0,0 mm 0,0 km/h (0 Bft) S 180 14,5 C 0,0 km/h (0 Bft)
30.08.2015 23:50 18,3 C 18,2 C 77 % 1014,0 hPa 0,0 mm 0,0 km/h (0 Bft) SO 135 14,2 C 0,0 km/h (0 Bft)
30.08.2015 23:55 18,1 C 18,0 C 77 % 1013,9 hPa 0,0 mm 0,0 km/h (0 Bft) S-SO 157 14,0 C 0,0 km/h (0 Bft)
_ Min-Zeit 06:45 06:55 15:45 23:55 - 23:55 - - 06:45 23:55
Minimum _ 14,6 C 14,6 C 42 % 1013,9 hPa - 0,0 km/h (0 Bft) - - 11,6 C 0,0 km/h (0 Bft)
_ Max-Zeit 15:35 10:15 03:00 12:50 23:55 11:55 - - 12:40 12:00
Maximum _ 31,1 C 36,7 C 84 % 1018,1 hPa 0,0 mm 12,2 km/h
NW (2 Bft)
- - 18,4 C 29,8 km/h
N-NO (5 Bft)
Durchschnitt _ 22,2 C 24,5 C 66 % 1015,6 hPa #0,0 mm 2,1 km/h (1 Bft) NW - 15,1 C 2,8 km/h (1 Bft)